Time,TemperatureF,DewpointF,PressureIn,WindDirection,WindDirectionDegrees,WindSpeedMPH,WindSpeedGustMPH,Humidity,HourlyPrecipIn,Conditions,Clouds,dailyrainin,SolarRadiationWatts/m^2,SoftwareType,DateUTC
2013-08-19 00:21:00,66.0,55.0,29.91,NE,38,7.0,10.0,68,0.00,,,0.00,0.000000,,2013-08-19 07:21:00,
2013-08-19 00:31:00,66.0,55.0,29.91,NE,38,7.0,10.0,68,0.00,,,0.00,0.000000,,2013-08-19 07:31:00,
2013-08-19 00:42:00,66.0,55.0,29.91,NE,38,7.0,10.0,68,0.00,,,0.00,0.000000,,2013-08-19 07:42:00,
2013-08-19 00:52:00,66.0,55.0,29.91,NE,38,7.0,10.0,68,0.00,,,0.00,0.000000,,2013-08-19 07:52:00,
2013-08-19 01:21:00,68.0,55.0,29.92,NNE,29,5.0,10.0,64,0.00,,,0.00,0.000000,,2013-08-19 08:21:00,
2013-08-19 01:32:00,68.0,55.0,29.92,NNE,29,5.0,10.0,64,0.00,,,0.00,0.000000,,2013-08-19 08:32:00,
2013-08-19 01:42:00,68.0,55.0,29.92,NNE,29,5.0,10.0,64,0.00,,,0.00,0.000000,,2013-08-19 08:42:00,
2013-08-19 01:51:00,68.0,55.0,29.92,NNE,29,5.0,10.0,64,0.00,,,0.00,0.000000,,2013-08-19 08:51:00,
2013-08-19 02:22:00,65.0,56.0,29.91,NE,36,9.0,10.0,72,0.00,,,0.00,0.000000,,2013-08-19 09:22:00,
2013-08-19 02:33:00,65.0,56.0,29.91,NE,36,9.0,10.0,72,0.00,,,0.00,0.000000,,2013-08-19 09:33:00,
2013-08-19 02:43:00,65.0,56.0,29.91,NE,36,9.0,10.0,72,0.00,,,0.00,0.000000,,2013-08-19 09:43:00,
2013-08-19 02:53:00,65.0,56.0,29.91,NE,36,9.0,10.0,72,0.00,,,0.00,0.000000,,2013-08-19 09:53:00,
2013-08-19 03:23:00,66.0,57.0,29.89,NE,50,6.0,11.0,73,0.00,,,0.00,0.000000,,2013-08-19 10:23:00,
2013-08-19 03:33:00,66.0,57.0,29.89,NE,50,6.0,11.0,73,0.00,,,0.00,0.000000,,2013-08-19 10:33:00,
2013-08-19 03:42:00,66.0,57.0,29.89,NE,50,6.0,11.0,73,0.00,,,0.00,0.000000,,2013-08-19 10:42:00,
2013-08-19 03:52:00,66.0,57.0,29.89,NE,50,6.0,11.0,73,0.00,,,0.00,0.000000,,2013-08-19 10:52:00,
2013-08-19 04:21:00,65.0,57.0,29.89,NE,36,7.0,10.0,76,0.00,,,0.00,0.000000,,2013-08-19 11:21:00,
2013-08-19 04:33:00,65.0,57.0,29.89,NE,36,7.0,10.0,76,0.00,,,0.00,0.000000,,2013-08-19 11:33:00,
2013-08-19 04:45:00,65.0,57.0,29.89,NE,36,7.0,10.0,76,0.00,,,0.00,0.000000,,2013-08-19 11:45:00,
2013-08-19 04:52:00,65.0,57.0,29.89,NE,36,7.0,10.0,76,0.00,,,0.00,0.000000,,2013-08-19 11:52:00,
2013-08-19 05:21:00,64.0,57.0,29.89,NE,40,9.0,12.0,77,0.00,,,0.00,0.000000,,2013-08-19 12:21:00,
2013-08-19 05:32:00,64.0,57.0,29.89,NE,40,9.0,12.0,77,0.00,,,0.00,0.000000,,2013-08-19 12:32:00,
2013-08-19 05:42:00,64.0,57.0,29.89,NE,40,9.0,12.0,77,0.00,,,0.00,0.000000,,2013-08-19 12:42:00,
2013-08-19 05:52:00,64.0,57.0,29.89,NE,40,9.0,12.0,77,0.00,,,0.00,0.000000,,2013-08-19 12:52:00,
2013-08-19 06:22:00,64.0,56.0,29.89,NE,38,8.0,10.0,75,0.00,,,0.00,0.000000,,2013-08-19 13:22:00,
2013-08-19 06:32:00,64.0,56.0,29.89,NE,38,8.0,10.0,75,0.00,,,0.00,0.000000,,2013-08-19 13:32:00,
2013-08-19 06:42:00,64.0,56.0,29.89,NE,38,8.0,10.0,75,0.00,,,0.00,0.000000,,2013-08-19 13:42:00,
2013-08-19 06:52:00,64.0,56.0,29.89,NE,38,8.0,10.0,75,0.00,,,0.00,0.000000,,2013-08-19 13:52:00,
2013-08-19 07:21:00,64.0,56.0,29.90,North,6,4.0,10.0,74,0.00,,,0.00,0.000000,,2013-08-19 14:21:00,
2013-08-19 07:32:00,64.0,56.0,29.90,North,6,4.0,10.0,74,0.00,,,0.00,0.000000,,2013-08-19 14:32:00,
2013-08-19 07:42:00,64.0,56.0,29.90,North,6,4.0,10.0,74,0.00,,,0.00,0.000000,,2013-08-19 14:42:00,
2013-08-19 07:52:00,64.0,56.0,29.90,North,6,4.0,10.0,74,0.00,,,0.00,0.000000,,2013-08-19 14:52:00,
2013-08-19 08:22:00,63.0,57.0,29.91,North,359,8.0,16.0,82,0.00,,,0.00,24.000000,,2013-08-19 15:22:00,
2013-08-19 08:34:00,63.0,57.0,29.91,North,359,8.0,16.0,82,0.00,,,0.00,24.000000,,2013-08-19 15:34:00,
2013-08-19 08:44:00,63.0,57.0,29.91,North,359,8.0,16.0,82,0.00,,,0.00,24.000000,,2013-08-19 15:44:00,
2013-08-19 08:54:00,63.0,57.0,29.91,North,359,8.0,16.0,82,0.00,,,0.00,24.000000,,2013-08-19 15:54:00,
2013-08-19 09:23:00,64.0,60.0,29.93,NNE,17,6.0,14.0,86,0.00,,,0.00,151.000000,,2013-08-19 16:23:00,
2013-08-19 09:33:00,64.0,60.0,29.93,NNE,17,6.0,14.0,86,0.00,,,0.00,151.000000,,2013-08-19 16:33:00,
2013-08-19 09:47:00,64.0,60.0,29.93,NNE,17,6.0,14.0,86,0.00,,,0.00,151.000000,,2013-08-19 16:47:00,
2013-08-19 09:56:00,64.0,59.0,29.94,NE,39,7.0,10.0,83,0.00,,,0.00,358.000000,,2013-08-19 16:56:00,
2013-08-19 10:30:00,64.0,-99.9,29.94,NE,39,7.0,10.0,83,0.00,,,0.00,358.000000,,2013-08-19 17:30:00,
2013-08-19 10:38:00,64.0,59.0,29.94,NE,39,7.0,10.0,83,0.00,,,0.00,358.000000,,2013-08-19 17:38:00,
2013-08-19 10:49:00,64.0,59.0,29.94,NE,39,7.0,10.0,83,0.00,,,0.00,358.000000,,2013-08-19 17:49:00,
2013-08-19 10:56:00,-999.0,-99.9,29.95,NE,45,6.0,11.0,78,0.00,,,0.00,482.000000,,2013-08-19 17:56:00,
2013-08-19 11:28:00,67.0,60.0,29.95,NE,45,6.0,11.0,78,0.00,,,0.00,482.000000,,2013-08-19 18:28:00,
2013-08-19 11:38:00,67.0,60.0,29.95,NE,45,6.0,11.0,78,0.00,,,0.00,482.000000,,2013-08-19 18:38:00,
2013-08-19 11:50:00,-999.0,-99.9,29.95,NE,45,6.0,11.0,78,0.00,,,0.00,482.000000,,2013-08-19 18:50:00,
2013-08-19 11:56:00,72.0,61.0,29.96,NE,53,6.0,12.0,68,0.00,,,0.00,840.000000,,2013-08-19 18:56:00,
2013-08-19 12:30:00,-999.0,-99.9,29.96,NE,53,6.0,12.0,68,0.00,,,0.00,840.000000,,2013-08-19 19:30:00,
2013-08-19 12:40:00,72.0,61.0,29.96,NE,53,6.0,12.0,68,0.00,,,0.00,840.000000,,2013-08-19 19:40:00,
2013-08-19 12:50:00,72.0,61.0,29.96,NE,53,6.0,12.0,68,0.00,,,0.00,840.000000,,2013-08-19 19:50:00,
2013-08-19 12:56:00,-999.0,-99.9,29.95,NE,55,6.0,13.0,-999,-99.99,,,-99.99,1184.000000,,2013-08-19 19:56:00,
2013-08-19 13:30:00,77.0,62.0,29.95,NE,55,6.0,13.0,59,0.00,,,0.00,1184.000000,,2013-08-19 20:30:00,
2013-08-19 13:39:00,77.0,62.0,29.95,NE,55,6.0,13.0,59,0.00,,,0.00,1184.000000,,2013-08-19 20:39:00,
2013-08-19 13:50:00,77.0,62.0,29.95,NE,55,6.0,13.0,59,0.00,,,0.00,1184.000000,,2013-08-19 20:50:00,
2013-08-19 14:25:00,75.0,61.0,29.95,NE,46,6.0,10.0,62,0.00,,,0.00,1270.000000,,2013-08-19 21:25:00,
2013-08-19 14:38:00,75.0,61.0,29.95,NE,46,6.0,10.0,62,0.00,,,0.00,1270.000000,,2013-08-19 21:38:00,
2013-08-19 14:45:00,75.0,61.0,29.95,NE,46,6.0,10.0,62,0.00,,,0.00,1270.000000,,2013-08-19 21:45:00,
2013-08-19 14:54:00,75.0,61.0,29.95,NE,46,6.0,10.0,62,0.00,,,0.00,1270.000000,,2013-08-19 21:54:00,
2013-08-19 15:25:00,77.0,59.0,29.93,NE,35,8.0,14.0,54,0.00,,,0.00,1264.000000,,2013-08-19 22:25:00,
2013-08-19 15:35:00,77.0,59.0,29.93,NE,35,8.0,14.0,54,0.00,,,0.00,1264.000000,,2013-08-19 22:35:00,
2013-08-19 15:44:00,77.0,59.0,29.93,NE,35,8.0,14.0,54,0.00,,,0.00,1264.000000,,2013-08-19 22:44:00,
2013-08-19 15:54:00,77.0,59.0,29.93,NE,35,8.0,14.0,54,0.00,,,0.00,1264.000000,,2013-08-19 22:54:00,
2013-08-19 16:25:00,79.0,61.0,29.91,NNE,32,10.0,15.0,55,0.00,,,0.00,1186.000000,,2013-08-19 23:25:00,
2013-08-19 16:36:00,79.0,61.0,29.91,NNE,32,10.0,15.0,55,0.00,,,0.00,1186.000000,,2013-08-19 23:36:00,
2013-08-19 16:48:00,79.0,61.0,29.91,NNE,32,10.0,15.0,55,0.00,,,0.00,1186.000000,,2013-08-19 23:48:00,
2013-08-19 16:55:00,79.0,61.0,29.91,NNE,32,10.0,15.0,55,0.00,,,0.00,1186.000000,,2013-08-19 23:55:00,
2013-08-19 17:23:00,78.0,61.0,29.90,NNE,33,10.0,13.0,55,0.00,,,0.00,1030.000000,,2013-08-20 00:23:00,
2013-08-19 17:32:00,78.0,61.0,29.90,NNE,33,10.0,13.0,55,0.00,,,0.00,1030.000000,,2013-08-20 00:32:00,
2013-08-19 17:42:00,78.0,61.0,29.90,NNE,33,10.0,13.0,55,0.00,,,0.00,1030.000000,,2013-08-20 00:42:00,
2013-08-19 17:52:00,78.0,61.0,29.90,NNE,33,10.0,13.0,55,0.00,,,0.00,1030.000000,,2013-08-20 00:52:00,
2013-08-19 18:22:00,77.0,61.0,29.89,NNE,24,8.0,13.0,58,0.00,,,0.00,809.000000,,2013-08-20 01:22:00,
2013-08-19 18:32:00,77.0,61.0,29.89,NNE,24,8.0,13.0,58,0.00,,,0.00,809.000000,,2013-08-20 01:32:00,
2013-08-19 18:42:00,77.0,61.0,29.89,NNE,24,8.0,13.0,58,0.00,,,0.00,809.000000,,2013-08-20 01:42:00,
2013-08-19 18:52:00,77.0,61.0,29.89,NNE,24,8.0,13.0,58,0.00,,,0.00,809.000000,,2013-08-20 01:52:00,
2013-08-19 19:21:00,82.0,59.0,29.88,West,263,8.0,15.0,45,0.00,,,0.00,542.000000,,2013-08-20 02:21:00,
2013-08-19 19:32:00,82.0,59.0,29.88,West,263,8.0,15.0,45,0.00,,,0.00,542.000000,,2013-08-20 02:32:00,
2013-08-19 19:42:00,82.0,59.0,29.88,West,263,8.0,15.0,45,0.00,,,0.00,542.000000,,2013-08-20 02:42:00,
2013-08-19 19:52:00,82.0,59.0,29.88,West,263,8.0,15.0,45,0.00,,,0.00,542.000000,,2013-08-20 02:52:00,
2013-08-19 20:22:00,77.0,61.0,29.88,NNW,347,6.0,19.0,58,0.00,,,0.00,246.000000,,2013-08-20 03:22:00,
2013-08-19 20:33:00,77.0,61.0,29.88,NNW,347,6.0,19.0,58,0.00,,,0.00,246.000000,,2013-08-20 03:33:00,
2013-08-19 20:43:00,77.0,61.0,29.88,NNW,347,6.0,19.0,58,0.00,,,0.00,246.000000,,2013-08-20 03:43:00,
2013-08-19 20:53:00,77.0,61.0,29.88,NNW,347,6.0,19.0,58,0.00,,,0.00,246.000000,,2013-08-20 03:53:00,
2013-08-19 21:23:00,68.0,58.0,29.89,NE,35,9.0,18.0,71,0.00,,,0.00,17.000000,,2013-08-20 04:23:00,
2013-08-19 21:33:00,68.0,58.0,29.89,NE,35,9.0,18.0,71,0.00,,,0.00,17.000000,,2013-08-20 04:33:00,
2013-08-19 21:42:00,68.0,58.0,29.89,NE,35,9.0,18.0,71,0.00,,,0.00,17.000000,,2013-08-20 04:42:00,
2013-08-19 21:53:00,68.0,58.0,29.89,NE,35,9.0,18.0,71,0.00,,,0.00,17.000000,,2013-08-20 04:53:00,
2013-08-19 22:22:00,66.0,53.0,29.90,NE,34,8.0,10.0,63,0.00,,,0.00,0.000000,,2013-08-20 05:22:00,
2013-08-19 22:32:00,66.0,53.0,29.90,NE,34,8.0,10.0,63,0.00,,,0.00,0.000000,,2013-08-20 05:32:00,
2013-08-19 22:42:00,66.0,53.0,29.90,NE,34,8.0,10.0,63,0.00,,,0.00,0.000000,,2013-08-20 05:42:00,
2013-08-19 22:52:00,66.0,53.0,29.90,NE,34,8.0,10.0,63,0.00,,,0.00,0.000000,,2013-08-20 05:52:00,
2013-08-19 23:21:00,66.0,52.0,29.91,NNE,16,5.0,10.0,60,0.00,,,0.00,0.000000,,2013-08-20 06:21:00,
2013-08-19 23:31:00,66.0,52.0,29.91,NNE,16,5.0,10.0,60,0.00,,,0.00,0.000000,,2013-08-20 06:31:00,
2013-08-19 23:42:00,66.0,52.0,29.91,NNE,16,5.0,10.0,60,0.00,,,0.00,0.000000,,2013-08-20 06:42:00,
2013-08-19 23:51:00,66.0,52.0,29.91,NNE,16,5.0,10.0,60,0.00,,,0.00,0.000000,,2013-08-20 06:51:00,